timestamp,wind_dir_avg,wind_spd_avg,wind_spd_max_dir,wind_spd_gust,battery_voltage,lat,long
2021-08-11 00:04:01+00:00,245.0,6.72,243.0,7.59,12.97,47.59359,-54.27349
2021-08-11 00:14:01+00:00,252.0,6.86,250.0,7.44,12.65,47.59359,-54.27349
2021-08-11 00:24:01+00:00,249.0,6.91,244.0,7.64,12.65,47.59359,-54.27349
2021-08-11 00:34:01+00:00,242.0,5.95,237.0,6.82,12.65,47.59359,-54.27349
2021-08-11 00:44:01+00:00,235.0,5.17,232.0,5.79,12.65,47.59359,-54.27349
2021-08-11 00:54:01+00:00,243.0,5.13,242.0,6.19,12.65,47.59359,-54.27349
2021-08-11 01:04:01+00:00,240.0,5.22,241.0,5.97,12.65,47.59359,-54.27349
2021-08-11 01:14:00+00:00,247.0,5.58,244.0,6.28,12.65,47.59359,-54.27349
2021-08-11 01:24:00+00:00,230.0,3.99,225.0,4.58,12.65,47.59359,-54.27349
2021-08-11 01:34:00+00:00,228.0,4.26,225.0,5.01,12.65,47.59359,-54.27349
2021-08-11 01:44:00+00:00,228.0,4.37,228.0,5.42,12.65,47.59359,-54.27349
2021-08-11 01:54:00+00:00,233.0,4.38,241.0,5.43,12.65,47.59359,-54.27349
2021-08-11 02:04:00+00:00,227.0,4.47,225.0,5.13,12.65,47.59359,-54.27349
2021-08-11 02:14:01+00:00,232.0,4.97,245.0,6.11,12.65,47.59359,-54.27349
2021-08-11 02:24:01+00:00,227.0,4.58,222.0,5.5,12.65,47.59359,-54.27349
2021-08-11 02:34:01+00:00,227.0,4.67,227.0,5.8,12.65,47.59359,-54.27349
2021-08-11 02:44:01+00:00,234.0,4.97,240.0,6.45,12.65,47.59359,-54.27349
2021-08-11 02:54:01+00:00,230.0,4.46,223.0,5.57,12.65,47.59359,-54.27349
2021-08-11 03:04:01+00:00,233.0,5.97,232.0,6.89,12.65,47.59359,-54.27349
2021-08-11 03:14:00+00:00,227.0,5.66,230.0,6.74,12.57,47.59359,-54.27349
2021-08-11 03:24:00+00:00,227.0,5.05,233.0,6.03,12.57,47.59359,-54.27349
2021-08-11 03:34:00+00:00,230.0,5.61,231.0,6.7,12.57,47.59359,-54.27349
2021-08-11 03:44:00+00:00,235.0,4.8,234.0,6.17,12.57,47.59359,-54.27349
2021-08-11 03:54:00+00:00,223.0,4.56,218.0,5.54,12.57,47.59359,-54.27349
2021-08-11 04:04:00+00:00,230.0,5.01,230.0,5.77,12.57,47.59359,-54.27349
2021-08-11 04:14:01+00:00,232.0,4.7,244.0,5.49,12.65,47.59359,-54.27349
2021-08-11 04:24:01+00:00,229.0,4.51,230.0,5.58,12.65,47.59359,-54.27349
2021-08-11 04:34:01+00:00,220.0,4.84,228.0,5.56,12.65,47.59359,-54.27349
2021-08-11 04:44:01+00:00,225.0,4.34,229.0,5.37,12.65,47.59359,-54.27349
2021-08-11 04:54:01+00:00,232.0,4.65,234.0,5.47,12.65,47.59359,-54.27349
2021-08-11 05:04:01+00:00,226.0,4.54,229.0,5.64,12.65,47.59359,-54.27349
2021-08-11 05:14:00+00:00,219.0,4.47,218.0,5.02,12.57,47.59359,-54.27349
2021-08-11 05:24:00+00:00,208.0,4.68,213.0,5.26,12.57,47.59359,-54.27349
2021-08-11 05:34:00+00:00,199.0,4.17,202.0,5.04,12.57,47.59359,-54.27349
2021-08-11 05:44:00+00:00,196.0,4.03,197.0,4.41,12.57,47.59359,-54.27349
2021-08-11 05:54:00+00:00,218.0,2.91,216.0,3.3,12.57,47.59359,-54.27349
2021-08-11 06:04:00+00:00,211.0,2.67,216.0,3.03,12.57,47.59359,-54.27349
2021-08-11 06:14:01+00:00,207.0,4.22,208.0,4.63,12.57,47.59359,-54.27349
2021-08-11 06:24:01+00:00,217.0,4.44,222.0,5.22,12.57,47.59359,-54.27349
2021-08-11 06:34:01+00:00,217.0,4.6,226.0,5.08,12.57,47.59359,-54.27349
2021-08-11 06:44:01+00:00,216.0,4.04,216.0,4.74,12.57,47.59359,-54.27349
2021-08-11 06:54:01+00:00,230.0,3.0,229.0,3.35,12.57,47.59359,-54.27349
2021-08-11 07:04:01+00:00,222.0,3.63,225.0,4.34,12.57,47.59359,-54.27349
2021-08-11 07:14:01+00:00,226.0,3.43,221.0,3.89,12.49,47.59359,-54.27349
2021-08-11 07:24:01+00:00,215.0,4.06,216.0,4.39,12.49,47.59359,-54.27349
2021-08-11 07:34:01+00:00,213.0,5.0,217.0,5.46,12.49,47.59359,-54.27349
2021-08-11 07:44:01+00:00,210.0,5.14,208.0,5.93,12.49,47.59359,-54.27349
2021-08-11 07:54:01+00:00,210.0,4.88,212.0,5.29,12.49,47.59359,-54.27349
2021-08-11 08:04:01+00:00,212.0,5.18,212.0,5.67,12.49,47.59359,-54.27349
2021-08-11 08:14:01+00:00,220.0,4.51,215.0,5.2,12.49,47.59359,-54.27349
2021-08-11 08:24:01+00:00,223.0,5.94,233.0,6.98,12.49,47.59359,-54.27349
2021-08-11 08:34:01+00:00,224.0,5.25,222.0,5.86,12.49,47.59359,-54.27349
2021-08-11 08:44:01+00:00,217.0,5.13,216.0,5.71,12.49,47.59359,-54.27349
2021-08-11 08:54:01+00:00,216.0,5.19,216.0,5.67,12.49,47.59359,-54.27349
2021-08-11 09:04:01+00:00,209.0,5.33,210.0,5.76,12.49,47.59359,-54.27349
2021-08-11 09:14:01+00:00,214.0,5.35,217.0,5.93,12.49,47.59359,-54.27349
2021-08-11 09:24:01+00:00,230.0,6.66,232.0,7.23,12.49,47.59359,-54.27349
2021-08-11 09:34:01+00:00,229.0,5.76,232.0,6.63,12.49,47.59359,-54.27349
2021-08-11 09:44:01+00:00,224.0,5.52,231.0,6.42,12.49,47.59359,-54.27349
2021-08-11 09:54:01+00:00,230.0,5.8,231.0,6.36,12.49,47.59359,-54.27349
2021-08-11 10:04:01+00:00,229.0,5.19,229.0,6.09,12.49,47.59359,-54.27349
2021-08-11 10:14:01+00:00,217.0,4.92,221.0,5.36,12.49,47.59359,-54.27349
2021-08-11 10:24:01+00:00,219.0,3.99,218.0,4.87,12.49,47.59359,-54.27349
2021-08-11 10:34:01+00:00,216.0,4.78,217.0,5.26,12.49,47.59359,-54.27349
2021-08-11 10:44:01+00:00,212.0,3.44,210.0,4.22,12.49,47.59359,-54.27349
2021-08-11 10:54:01+00:00,213.0,3.49,215.0,3.97,12.49,47.59359,-54.27349
2021-08-11 11:04:01+00:00,215.0,3.99,213.0,4.48,12.49,47.59359,-54.27349
2021-08-11 11:14:01+00:00,224.0,3.66,226.0,4.18,12.81,47.59359,-54.27349
2021-08-11 11:24:01+00:00,225.0,3.35,225.0,4.03,12.81,47.59359,-54.27349
2021-08-11 11:34:01+00:00,231.0,2.94,232.0,3.37,12.81,47.59359,-54.27349
2021-08-11 11:44:01+00:00,206.0,2.97,211.0,3.22,12.81,47.59359,-54.27349
2021-08-11 11:54:01+00:00,188.0,2.55,190.0,3.5,12.81,47.59359,-54.27349
2021-08-11 12:04:01+00:00,192.0,3.75,194.0,4.07,12.81,47.59359,-54.27349
2021-08-11 12:14:01+00:00,184.0,4.14,182.0,4.46,13.29,47.59359,-54.27349
2021-08-11 12:24:01+00:00,188.0,4.39,188.0,5.05,13.29,47.59359,-54.27349
2021-08-11 12:34:01+00:00,184.0,4.0,188.0,4.55,13.29,47.59359,-54.27349
2021-08-11 12:44:01+00:00,176.0,4.32,175.0,4.72,13.29,47.59359,-54.27349
2021-08-11 12:54:01+00:00,179.0,3.86,179.0,4.11,13.29,47.59359,-54.27349
2021-08-11 13:04:01+00:00,184.0,4.17,184.0,4.57,13.29,47.59359,-54.27349
2021-08-11 13:14:01+00:00,200.0,5.29,202.0,5.66,13.76,47.59359,-54.27349
2021-08-11 13:24:01+00:00,194.0,5.03,192.0,5.59,13.76,47.59359,-54.27349
2021-08-11 13:34:01+00:00,187.0,3.59,189.0,3.98,13.76,47.59359,-54.27349
2021-08-11 13:44:01+00:00,202.0,4.84,204.0,5.38,13.76,47.59359,-54.27349
2021-08-11 13:54:01+00:00,203.0,3.52,205.0,3.89,13.76,47.59359,-54.27349
2021-08-11 14:04:01+00:00,200.0,3.9,203.0,4.19,13.76,47.59359,-54.27349
2021-08-11 14:14:01+00:00,211.0,3.44,209.0,3.66,13.84,47.59359,-54.27349
2021-08-11 14:24:01+00:00,211.0,3.57,212.0,3.95,13.84,47.59359,-54.27349
2021-08-11 14:34:01+00:00,192.0,3.35,194.0,3.69,13.84,47.59359,-54.27349
2021-08-11 14:44:01+00:00,208.0,4.07,210.0,4.34,13.84,47.59359,-54.27349
2021-08-11 14:54:01+00:00,205.0,3.78,205.0,4.05,13.84,47.59359,-54.27349
2021-08-11 15:04:01+00:00,213.0,3.72,212.0,3.99,13.84,47.59359,-54.27349
2021-08-11 15:14:01+00:00,198.0,3.26,199.0,3.57,13.68,47.59359,-54.27349
2021-08-11 15:24:01+00:00,185.0,3.21,186.0,3.71,13.68,47.59359,-54.27349
2021-08-11 15:34:01+00:00,205.0,4.55,205.0,4.85,13.68,47.59359,-54.27349
2021-08-11 15:44:01+00:00,212.0,4.26,212.0,4.53,13.68,47.59359,-54.27349
2021-08-11 15:54:01+00:00,210.0,4.57,212.0,4.87,13.68,47.59359,-54.27349
2021-08-11 16:04:01+00:00,206.0,5.33,204.0,5.64,13.68,47.59359,-54.27349
2021-08-11 16:14:01+00:00,202.0,5.27,202.0,5.65,14.08,47.59359,-54.27349
2021-08-11 16:24:01+00:00,201.0,4.27,201.0,4.73,14.08,47.59359,-54.27349
2021-08-11 16:34:01+00:00,205.0,4.99,205.0,5.57,14.08,47.59359,-54.27349
2021-08-11 16:44:01+00:00,202.0,5.02,204.0,5.72,14.08,47.59359,-54.27349
2021-08-11 16:54:01+00:00,196.0,4.89,197.0,5.23,14.08,47.59359,-54.27349
2021-08-11 17:04:01+00:00,195.0,4.66,199.0,5.15,14.08,47.59359,-54.27349
2021-08-11 17:14:01+00:00,196.0,4.87,198.0,5.25,13.92,47.59359,-54.27349
2021-08-11 17:24:01+00:00,202.0,5.54,204.0,5.86,13.92,47.59359,-54.27349
2021-08-11 17:34:01+00:00,200.0,4.52,199.0,4.89,13.92,47.59359,-54.27349
2021-08-11 17:44:01+00:00,206.0,6.0,204.0,6.38,13.92,47.59359,-54.27349
2021-08-11 17:54:01+00:00,198.0,4.72,199.0,5.13,13.92,47.59359,-54.27349
2021-08-11 18:04:01+00:00,197.0,4.76,198.0,5.27,13.92,47.59359,-54.27349
2021-08-11 18:14:01+00:00,202.0,5.92,201.0,6.57,13.84,47.59359,-54.27349
2021-08-11 18:24:01+00:00,204.0,6.08,203.0,6.55,13.84,47.59359,-54.27349
2021-08-11 18:34:01+00:00,204.0,5.92,201.0,6.51,13.84,47.59359,-54.27349
2021-08-11 18:44:01+00:00,213.0,6.24,214.0,6.59,13.84,47.59359,-54.27349
2021-08-11 18:54:01+00:00,204.0,6.33,208.0,6.76,13.84,47.59359,-54.27349
2021-08-11 19:04:01+00:00,207.0,5.65,211.0,6.28,13.84,47.59359,-54.27349
2021-08-11 19:14:01+00:00,209.0,6.05,209.0,6.44,13.76,47.59359,-54.27349
2021-08-11 19:24:01+00:00,207.0,6.01,210.0,6.4,13.76,47.59359,-54.27349
2021-08-11 19:34:01+00:00,211.0,5.74,213.0,6.36,13.76,47.59359,-54.27349
2021-08-11 19:44:01+00:00,215.0,4.71,216.0,5.15,13.76,47.59359,-54.27349
2021-08-11 19:54:01+00:00,214.0,4.91,214.0,5.29,13.76,47.59359,-54.27349
2021-08-11 20:04:01+00:00,210.0,4.03,214.0,4.31,13.76,47.59359,-54.27349
2021-08-11 20:14:01+00:00,198.0,3.72,199.0,4.05,13.6,47.59359,-54.27349
2021-08-11 20:24:01+00:00,194.0,3.43,194.0,3.98,13.6,47.59359,-54.27349
2021-08-11 20:34:01+00:00,189.0,4.0,190.0,4.61,13.6,47.59359,-54.27349
2021-08-11 20:44:01+00:00,198.0,4.76,198.0,5.37,13.6,47.59359,-54.27349
2021-08-11 20:54:01+00:00,213.0,5.18,216.0,5.71,13.6,47.59359,-54.27349
2021-08-11 21:04:01+00:00,215.0,4.55,216.0,4.86,13.6,47.59359,-54.27349
2021-08-11 21:14:01+00:00,215.0,4.88,216.0,5.12,13.68,47.59359,-54.27349
2021-08-11 21:24:01+00:00,212.0,4.12,213.0,4.58,13.68,47.59359,-54.27349
2021-08-11 21:34:01+00:00,214.0,4.87,213.0,5.08,13.68,47.59359,-54.27349
2021-08-11 21:44:01+00:00,207.0,4.74,208.0,5.02,13.68,47.59359,-54.27349
2021-08-11 21:54:01+00:00,205.0,4.32,207.0,4.8,13.68,47.59359,-54.27349
2021-08-11 22:04:01+00:00,207.0,4.06,211.0,4.42,13.68,47.59359,-54.27349
2021-08-11 22:14:01+00:00,211.0,3.4,214.0,3.58,13.21,47.59359,-54.27349
2021-08-11 22:24:01+00:00,218.0,2.88,219.0,3.08,13.21,47.59359,-54.27349
2021-08-11 22:34:01+00:00,218.0,4.02,219.0,4.24,13.21,47.59359,-54.27349
2021-08-11 22:44:01+00:00,219.0,2.9,220.0,3.22,13.21,47.59359,-54.27349
2021-08-11 22:54:01+00:00,223.0,2.9,224.0,3.27,13.21,47.59359,-54.27349
2021-08-11 23:04:01+00:00,250.0,2.28,249.0,2.66,13.21,47.59359,-54.27349
2021-08-11 23:14:01+00:00,244.0,1.39,238.0,1.73,12.73,47.59359,-54.27349
2021-08-11 23:24:01+00:00,247.0,1.98,246.0,2.22,12.73,47.59359,-54.27349
2021-08-11 23:34:01+00:00,260.0,1.71,261.0,1.91,12.73,47.59359,-54.27349
2021-08-11 23:44:01+00:00,289.0,1.06,292.0,1.18,12.73,47.59359,-54.27349
2021-08-11 23:54:01+00:00,153.0,0.74,149.0,0.88,12.73,47.59359,-54.27349
